TimeAST,TemperatureF,Dew PointF,Humidity,Sea Level PressureIn,VisibilityMPH,Wind Direction,Wind SpeedMPH,Gust SpeedMPH,PrecipitationIn,Events,Conditions,WindDirDegrees,DateUTC
12:00 AM,84.2,77.0,79,29.95,6.2,ESE,5.8,-,N/A,,Scattered Clouds,120,2013-09-19 04:00:00
1:00 AM,84.2,77.0,79,29.95,6.2,SE,8.1,-,N/A,,Scattered Clouds,140,2013-09-19 05:00:00
2:00 AM,81,75,77,29.95,4,SE,8.1,,,Rain,Light Rain Showers,130,2013-09-19 06:00:00
2:00 AM,80.6,75.2,84,29.95,3.7,SE,8.1,-,N/A,Rain,Light Rain Showers,130,2013-09-19 06:00:00
3:00 AM,82.4,77.0,84,29.93,6.2,ESE,6.9,-,N/A,,Scattered Clouds,110,2013-09-19 07:00:00
4:00 AM,82.4,77.0,84,29.92,6.2,ESE,5.8,-,N/A,,Scattered Clouds,120,2013-09-19 08:00:00
5:00 AM,83,77,76,29.94,16,ESE,5.8,,,,Partly Cloudy,110,2013-09-19 09:00:00
5:00 AM,82.4,77.0,84,29.92,6.2,SE,5.8,-,N/A,,Partly Cloudy,130,2013-09-19 09:00:00
6:00 AM,82.4,75.2,79,29.95,6.2,ESE,5.8,-,N/A,,Partly Cloudy,120,2013-09-19 10:00:00
7:00 AM,84.2,77.0,79,29.95,6.2,SE,10.4,-,N/A,,Partly Cloudy,140,2013-09-19 11:00:00
8:00 AM,85,76,68,29.99,16,SE,9.2,,,,Partly Cloudy,140,2013-09-19 12:00:00
8:00 AM,84.2,77.0,79,29.98,6.2,SE,9.2,-,N/A,,Partly Cloudy,140,2013-09-19 12:00:00
9:00 AM,86.0,77.0,74,30.01,6.2,SSE,5.8,-,N/A,,Partly Cloudy,150,2013-09-19 13:00:00
10:00 AM,84.2,77.0,79,30.01,6.2,Variable,5.8,-,N/A,Rain,Light Rain Showers,0,2013-09-19 14:00:00
11:00 AM,84,76,71,29.99,12,SW,3.5,,,Rain,Light Rain Showers,220,2013-09-19 15:00:00
11:00 AM,84.2,77.0,79,29.98,6.2,Variable,3.5,-,N/A,,Partly Cloudy,0,2013-09-19 15:00:00
12:00 PM,86.0,77.0,74,29.95,6.2,Variable,3.5,-,N/A,,Partly Cloudy,0,2013-09-19 16:00:00
1:00 PM,86.0,77.0,74,29.95,6.2,SSE,5.8,-,N/A,,Partly Cloudy,150,2013-09-19 17:00:00
2:00 PM,87,77,66,29.94,9,South,4.6,,,,Partly Cloudy,170,2013-09-19 18:00:00
2:00 PM,87.8,77.0,70,29.92,6.2,South,4.6,-,N/A,,Partly Cloudy,170,2013-09-19 18:00:00
3:00 PM,86.0,77.0,74,29.92,6.2,SSE,4.6,-,N/A,,Partly Cloudy,150,2013-09-19 19:00:00
4:00 PM,87.8,77.0,70,29.92,6.2,SSE,4.6,-,N/A,,Partly Cloudy,150,2013-09-19 20:00:00
5:00 PM,84.2,77.0,79,29.92,6.2,Variable,2.3,-,N/A,,Partly Cloudy,0,2013-09-19 21:00:00
6:00 PM,84.2,77.0,79,29.95,6.2,Calm,Calm,-,N/A,,Partly Cloudy,0,2013-09-19 22:00:00
7:00 PM,84.2,75.2,74,29.95,6.2,SE,4.6,-,N/A,,Partly Cloudy,130,2013-09-19 23:00:00
8:00 PM,84,75,67,29.98,12,ESE,4.6,,,,,110,2013-09-20 00:00:00
8:00 PM,84.2,75.2,74,29.98,6.2,ESE,4.6,-,N/A,,Partly Cloudy,110,2013-09-20 00:00:00
9:00 PM,84.2,71.6,66,29.98,6.2,ESE,4.6,-,N/A,,Partly Cloudy,110,2013-09-20 01:00:00
10:00 PM,84.2,75.2,74,29.98,6.2,ESE,4.6,-,N/A,,Partly Cloudy,110,2013-09-20 02:00:00
11:00 PM,83,76,74,29.99,12,ESE,4.6,,,,Scattered Clouds,120,2013-09-20 03:00:00
11:00 PM,82.4,75.2,79,29.98,6.2,ESE,4.6,-,N/A,,Partly Cloudy,120,2013-09-20 03:00:00